N750XL KAUO-KTEB

Flight info

Callsign N750XL
Flight time 1h 36m
Altitude 49000
Route LGC BURGG Q22 UMBRE SWNGR JAIKE4
Aircraft C750/M-SBDE3FGHRWXY/S

Departure

Time 2026-05-07 02:40
Airport Auburn University Regional Airport (KAUO)

Arrival

Time 2026-05-07 04:17
Airport Teterboro Airport (KTEB)
Time Latitude Longitude Altitude Speed Heading
2026-05-07 02:23 32.61319 -85.43343 753 ft 0 kts 92°
2026-05-07 02:33 32.61319 -85.43344 753 ft 0 kts 92°
2026-05-07 02:33 32.61325 -85.43324 753 ft 5 kts 40°
2026-05-07 02:34 32.61366 -85.43322 756 ft 6 kts
2026-05-07 02:34 32.61415 -85.43321 762 ft 9 kts
2026-05-07 02:34 32.61483 -85.43320 763 ft 9 kts 356°
2026-05-07 02:34 32.61532 -85.43370 758 ft 11 kts 312°
2026-05-07 02:35 32.61583 -85.43405 763 ft 6 kts 22°
2026-05-07 02:35 32.61610 -85.43380 765 ft 6 kts 40°
2026-05-07 02:35 32.61675 -85.43338 767 ft 14 kts 17°
2026-05-07 02:35 32.61755 -85.43310 766 ft 11 kts 17°
2026-05-07 02:36 32.61827 -85.43284 767 ft 10 kts 17°
2026-05-07 02:36 32.61887 -85.43262 768 ft 8 kts 17°
2026-05-07 02:36 32.61935 -85.43256 769 ft 6 kts 336°
2026-05-07 02:36 32.61962 -85.43313 773 ft 8 kts 287°
2026-05-07 02:37 32.61974 -85.43359 777 ft 6 kts 287°
2026-05-07 02:37 32.61996 -85.43442 778 ft 15 kts 287°
2026-05-07 02:37 32.62011 -85.43504 778 ft 0 kts 282°
2026-05-07 02:39 32.62013 -85.43526 778 ft 6 kts 271°
2026-05-07 02:39 32.62016 -85.43587 778 ft 7 kts 279°
2026-05-07 02:39 32.62011 -85.43605 778 ft 1 kts 206°
2026-05-07 02:39 32.61984 -85.43606 776 ft 12 kts 181°
2026-05-07 02:40 32.61592 -85.43615 764 ft 113 kts 180°
2026-05-07 02:40 32.60609 -85.43632 959 ft 155 kts 180°
2026-05-07 02:40 32.59476 -85.43616 1687 ft 167 kts 178°
2026-05-07 02:40 32.58322 -85.43120 2390 ft 195 kts 153°
2026-05-07 02:41 32.57417 -85.41817 3363 ft 216 kts 121°
2026-05-07 02:41 32.57146 -85.40034 4470 ft 233 kts 95°
2026-05-07 02:41 32.57493 -85.38070 5327 ft 249 kts 72°
2026-05-07 02:41 32.58289 -85.36244 6344 ft 254 kts 59°
2026-05-07 02:42 32.59485 -85.34642 7099 ft 263 kts 37°
2026-05-07 02:42 32.61019 -85.33502 7991 ft 271 kts 22°
2026-05-07 02:42 32.62882 -85.32617 8387 ft 298 kts 12°
2026-05-07 02:42 32.64884 -85.31845 9343 ft 308 kts 12°
2026-05-07 02:43 32.66955 -85.31304 10336 ft 301 kts
2026-05-07 02:43 32.68997 -85.30965 11386 ft 295 kts
2026-05-07 02:43 32.71045 -85.30605 12364 ft 291 kts
2026-05-07 02:43 32.73024 -85.30193 13346 ft 296 kts
2026-05-07 02:44 32.75130 -85.30113 13857 ft 300 kts 346°
2026-05-07 02:44 32.77135 -85.30503 14972 ft 285 kts 337°
2026-05-07 02:44 32.78899 -85.31156 16577 ft 237 kts 328°
2026-05-07 02:44 32.80449 -85.31852 17702 ft 237 kts 329°
2026-05-07 02:45 32.81931 -85.32519 18873 ft 222 kts 328°
2026-05-07 02:45 32.83394 -85.33171 19607 ft 228 kts 329°
2026-05-07 02:45 32.84896 -85.33828 20318 ft 232 kts 329°
2026-05-07 02:45 32.86499 -85.34330 20974 ft 252 kts 345°
2026-05-07 02:46 32.88312 -85.34122 21681 ft 273 kts
2026-05-07 02:46 32.90135 -85.33266 22418 ft 291 kts 19°
2026-05-07 02:46 32.91806 -85.31829 23183 ft 300 kts 32°
2026-05-07 02:46 32.93378 -85.30139 23757 ft 309 kts 34°
2026-05-07 02:47 32.94972 -85.28374 24225 ft 317 kts 35°
2026-05-07 02:47 32.96607 -85.26561 24695 ft 325 kts 35°
2026-05-07 02:47 32.98281 -85.24711 25172 ft 332 kts 35°
2026-05-07 02:47 32.99995 -85.22823 25654 ft 340 kts 35°
2026-05-07 02:48 33.01664 -85.20759 26117 ft 353 kts 44°
2026-05-07 02:48 33.03153 -85.18384 26612 ft 362 kts 49°
2026-05-07 02:48 33.04608 -85.15902 27120 ft 368 kts 50°
2026-05-07 02:48 33.06115 -85.13468 27532 ft 370 kts 43°
2026-05-07 02:49 33.07985 -85.11383 28059 ft 367 kts 29°
2026-05-07 02:49 33.10156 -85.09830 28556 ft 362 kts 16°
2026-05-07 02:49 33.12389 -85.08339 29083 ft 376 kts 27°
2026-05-07 02:49 33.14406 -85.06278 29617 ft 389 kts 40°
2026-05-07 02:50 33.16099 -85.03701 30152 ft 400 kts 53°
2026-05-07 02:50 33.17377 -85.00716 30620 ft 409 kts 66°
2026-05-07 02:50 33.18299 -84.97494 31112 ft 411 kts 68°
2026-05-07 02:50 33.19317 -84.94271 31415 ft 419 kts 66°
2026-05-07 02:51 33.20421 -84.91006 31689 ft 429 kts 65°
2026-05-07 02:51 33.21574 -84.87663 31964 ft 442 kts 65°
2026-05-07 02:51 33.22768 -84.84229 32239 ft 453 kts 65°
2026-05-07 02:51 33.23998 -84.80710 32512 ft 464 kts 65°
2026-05-07 02:52 33.25258 -84.77116 32779 ft 474 kts 65°
2026-05-07 02:52 33.26549 -84.73450 33046 ft 481 kts 65°
2026-05-07 02:52 33.27850 -84.69760 33308 ft 484 kts 65°
2026-05-07 02:52 33.29163 -84.66046 33578 ft 486 kts 64°
2026-05-07 02:53 33.30473 -84.62308 33788 ft 491 kts 64°
2026-05-07 02:53 33.31794 -84.58510 34047 ft 500 kts 64°
2026-05-07 02:53 33.33138 -84.54642 34283 ft 508 kts 64°
2026-05-07 02:53 33.34505 -84.50705 34521 ft 516 kts 64°
2026-05-07 02:54 33.35421 -84.48068 34680 ft 521 kts 64°
2026-05-07 02:54 33.37298 -84.42675 34997 ft 530 kts 64°
2026-05-07 02:54 33.38242 -84.39966 35149 ft 535 kts 64°
2026-05-07 02:54 33.39680 -84.35840 35488 ft 541 kts 64°
2026-05-07 02:55 33.41233 -84.31724 35717 ft 544 kts 59°
2026-05-07 02:55 33.43224 -84.27867 35942 ft 545 kts 49°
2026-05-07 02:55 33.45643 -84.24382 36175 ft 544 kts 41°
2026-05-07 02:55 33.48335 -84.21189 36412 ft 545 kts 37°
2026-05-07 02:56 33.51110 -84.18072 36663 ft 549 kts 37°
2026-05-07 02:56 33.53828 -84.14810 36897 ft 557 kts 41°
2026-05-07 02:56 33.56341 -84.11234 37123 ft 564 kts 46°
2026-05-07 02:56 33.58721 -84.07480 37385 ft 569 kts 48°
2026-05-07 02:57 33.61107 -84.03676 37649 ft 569 kts 46°
2026-05-07 02:57 33.63654 -84.00049 37912 ft 568 kts 42°
2026-05-07 02:57 33.66294 -83.96515 38184 ft 570 kts 42°
2026-05-07 02:57 33.68858 -83.92853 38456 ft 574 kts 45°
2026-05-07 02:58 33.71330 -83.89076 38726 ft 575 kts 45°
2026-05-07 02:58 33.73851 -83.85351 38957 ft 574 kts 43°
2026-05-07 02:58 33.76452 -83.81713 39186 ft 574 kts 42°
2026-05-07 02:58 33.79033 -83.78049 39433 ft 576 kts 43°
2026-05-07 02:59 33.81526 -83.74348 39701 ft 578 kts 44°
2026-05-07 02:59 33.84056 -83.70589 39948 ft 578 kts 43°
2026-05-07 02:59 33.86633 -83.66879 40198 ft 577 kts 42°
2026-05-07 02:59 33.89217 -83.63179 40448 ft 578 kts 42°
2026-05-07 03:00 33.91772 -83.59435 40700 ft 579 kts 43°
2026-05-07 03:00 33.94316 -83.55667 40944 ft 579 kts 43°
2026-05-07 03:00 33.96877 -83.51924 41195 ft 578 kts 41°
2026-05-07 03:00 33.99446 -83.48200 41446 ft 577 kts 41°
2026-05-07 03:01 34.01997 -83.44471 41684 ft 576 kts 41°
2026-05-07 03:01 34.04533 -83.40727 41985 ft 575 kts 41°
2026-05-07 03:01 34.07063 -83.37002 42244 ft 574 kts 41°
2026-05-07 03:01 34.09604 -83.33283 42504 ft 574 kts 41°
2026-05-07 03:02 34.12137 -83.29567 42768 ft 573 kts 41°
2026-05-07 03:02 34.14658 -83.25846 43035 ft 572 kts 41°
2026-05-07 03:02 34.17174 -83.22126 43307 ft 571 kts 40°
2026-05-07 03:02 34.19687 -83.18422 43578 ft 570 kts 40°
2026-05-07 03:03 34.22192 -83.14728 43860 ft 568 kts 40°
2026-05-07 03:03 34.24692 -83.11029 44157 ft 567 kts 40°
2026-05-07 03:03 34.27180 -83.07340 44452 ft 565 kts 40°
2026-05-07 03:03 34.29664 -83.03661 44749 ft 564 kts 40°
2026-05-07 03:04 34.32144 -82.99988 44982 ft 564 kts 40°
2026-05-07 03:04 34.34617 -82.96315 45217 ft 563 kts 40°
2026-05-07 03:04 34.37090 -82.92636 45449 ft 562 kts 40°
2026-05-07 03:04 34.39555 -82.88967 45681 ft 561 kts 40°
2026-05-07 03:05 34.42015 -82.85304 45909 ft 560 kts 40°
2026-05-07 03:05 34.44469 -82.81646 46133 ft 559 kts 40°
2026-05-07 03:05 34.46884 -82.78040 46462 ft 558 kts 40°
2026-05-07 03:05 34.49327 -82.74388 46695 ft 557 kts 39°
2026-05-07 03:06 34.51797 -82.70695 46971 ft 556 kts 39°
2026-05-07 03:06 34.54230 -82.67053 47206 ft 555 kts 39°
2026-05-07 03:06 34.56652 -82.63423 47437 ft 554 kts 39°
2026-05-07 03:06 34.59073 -82.59789 47659 ft 552 kts 39°
2026-05-07 03:07 34.61484 -82.56168 47882 ft 551 kts 39°
2026-05-07 03:07 34.63889 -82.52553 48111 ft 550 kts 39°
2026-05-07 03:07 34.66285 -82.48945 48349 ft 548 kts 39°
2026-05-07 03:07 34.68681 -82.45337 48590 ft 546 kts 39°
2026-05-07 03:08 34.71031 -82.41793 48821 ft 545 kts 39°
2026-05-07 03:08 34.73406 -82.38208 48994 ft 545 kts 39°
2026-05-07 03:08 34.78200 -82.30976 48987 ft 554 kts 39°
2026-05-07 03:09 34.83060 -82.23599 48985 ft 562 kts 39°
2026-05-07 03:09 34.87984 -82.16131 48990 ft 568 kts 40°
2026-05-07 03:10 34.92941 -82.08582 48991 ft 573 kts 40°
2026-05-07 03:10 34.97938 -82.00965 48998 ft 577 kts 40°
2026-05-07 03:11 35.02972 -81.93274 48988 ft 582 kts 40°
2026-05-07 03:11 35.07878 -81.85379 48970 ft 584 kts 42°
2026-05-07 03:12 35.12808 -81.77469 48965 ft 587 kts 42°
2026-05-07 03:12 35.17731 -81.69475 48980 ft 589 kts 42°
2026-05-07 03:13 35.22679 -81.61475 48975 ft 589 kts 42°
2026-05-07 03:13 35.27577 -81.53510 48938 ft 591 kts 42°
2026-05-07 03:14 35.32521 -81.45466 48954 ft 592 kts 43°
2026-05-07 03:15 35.39941 -81.33348 49021 ft 593 kts 43°
2026-05-07 03:15 35.44886 -81.25251 49068 ft 592 kts 43°
2026-05-07 03:16 35.49824 -81.17146 49049 ft 594 kts 43°
2026-05-07 03:16 35.54767 -81.09014 49049 ft 594 kts 43°
2026-05-07 03:17 35.59706 -81.00869 49013 ft 595 kts 43°
2026-05-07 03:17 35.64647 -80.92703 49003 ft 595 kts 43°
2026-05-07 03:18 35.69569 -80.84541 49014 ft 592 kts 43°
2026-05-07 03:18 35.74472 -80.76409 48994 ft 592 kts 43°
2026-05-07 03:19 35.79372 -80.68246 48970 ft 592 kts 43°
2026-05-07 03:19 35.84239 -80.60128 48978 ft 593 kts 43°
2026-05-07 03:20 35.89137 -80.51936 48921 ft 593 kts 44°
2026-05-07 03:20 35.94023 -80.43743 48925 ft 593 kts 44°
2026-05-07 03:21 35.98905 -80.35543 48920 ft 593 kts 44°
2026-05-07 03:21 36.03800 -80.27336 48930 ft 593 kts 44°
2026-05-07 03:22 36.08683 -80.19112 48934 ft 594 kts 44°
2026-05-07 03:22 36.13569 -80.10873 48928 ft 594 kts 44°
2026-05-07 03:23 36.18456 -80.02608 48984 ft 595 kts 44°
2026-05-07 03:23 36.23338 -79.94336 48980 ft 595 kts 44°
2026-05-07 03:24 36.28217 -79.86048 48976 ft 595 kts 44°
2026-05-07 03:24 36.33061 -79.77800 48968 ft 596 kts 44°
2026-05-07 03:25 36.37934 -79.69479 48977 ft 596 kts 44°
2026-05-07 03:25 36.42803 -79.61150 48923 ft 596 kts 45°
2026-05-07 03:26 36.47658 -79.52821 48923 ft 596 kts 45°
2026-05-07 03:26 36.52516 -79.44467 48973 ft 596 kts 45°
2026-05-07 03:27 36.57372 -79.36097 48964 ft 596 kts 45°
2026-05-07 03:27 36.62213 -79.27731 48965 ft 595 kts 45°
2026-05-07 03:28 36.67047 -79.19359 48954 ft 595 kts 45°
2026-05-07 03:28 36.71872 -79.10978 48941 ft 595 kts 45°
2026-05-07 03:29 36.76701 -79.02575 48929 ft 595 kts 45°
2026-05-07 03:29 36.81516 -78.94167 48916 ft 595 kts 45°
2026-05-07 03:30 36.86283 -78.85796 48923 ft 596 kts 45°
2026-05-07 03:30 36.91061 -78.77330 48922 ft 595 kts 45°
2026-05-07 03:31 36.95852 -78.68870 48931 ft 597 kts 45°
2026-05-07 03:31 37.00621 -78.60382 48932 ft 596 kts 45°
2026-05-07 03:32 37.05394 -78.51902 48929 ft 596 kts 45°
2026-05-07 03:32 37.10152 -78.43403 48917 ft 596 kts 46°
2026-05-07 03:33 37.14912 -78.34891 48969 ft 596 kts 45°
2026-05-07 03:33 37.19631 -78.26405 48914 ft 599 kts 47°
2026-05-07 03:34 37.23842 -78.17188 48924 ft 607 kts 53°
2026-05-07 03:34 37.27897 -78.07976 48921 ft 605 kts 52°
2026-05-07 03:35 37.32018 -77.98747 48907 ft 606 kts 53°
2026-05-07 03:35 37.36089 -77.89443 48920 ft 606 kts 52°
2026-05-07 03:36 37.40164 -77.80248 48927 ft 606 kts 53°
2026-05-07 03:36 37.44223 -77.70942 48921 ft 606 kts 53°
2026-05-07 03:37 37.48302 -77.61657 48913 ft 606 kts 53°
2026-05-07 03:37 37.52351 -77.52346 48906 ft 605 kts 53°
2026-05-07 03:38 37.56540 -77.43163 48878 ft 597 kts 46°
2026-05-07 03:38 37.59068 -77.39095 48883 ft 583 kts 37°
2026-05-07 03:38 37.61924 -77.35556 48895 ft 568 kts 28°
2026-05-07 03:38 37.65035 -77.32607 48898 ft 552 kts 20°
2026-05-07 03:39 37.68335 -77.30284 48904 ft 534 kts 11°
2026-05-07 03:39 37.71739 -77.28621 48901 ft 516 kts
2026-05-07 03:39 37.75167 -77.27552 48920 ft 504 kts 358°
2026-05-07 03:40 37.82026 -77.25442 48902 ft 522 kts
2026-05-07 03:40 37.88802 -77.21896 48891 ft 536 kts 13°
2026-05-07 03:41 37.94255 -77.17992 48911 ft 546 kts 19°
2026-05-07 03:41 38.00807 -77.13212 48903 ft 538 kts 14°
2026-05-07 03:42 38.08543 -77.08123 48904 ft 543 kts 17°
2026-05-07 03:42 38.14059 -77.04176 48903 ft 540 kts 15°
2026-05-07 03:43 38.20675 -76.99593 48884 ft 552 kts 20°
2026-05-07 03:43 38.23795 -76.96632 48893 ft 566 kts 28°
2026-05-07 03:43 38.26762 -76.93448 48907 ft 566 kts 28°
2026-05-07 03:44 38.32851 -76.87102 48908 ft 564 kts 27°
2026-05-07 03:44 38.38928 -76.80745 48918 ft 567 kts 28°
2026-05-07 03:45 38.45004 -76.74346 48884 ft 566 kts 27°
2026-05-07 03:45 38.48064 -76.71157 48644 ft 567 kts 28°
2026-05-07 03:45 38.51084 -76.67964 48377 ft 561 kts 28°
2026-05-07 03:45 38.54073 -76.64789 48141 ft 557 kts 28°
2026-05-07 03:46 38.57066 -76.61640 47885 ft 555 kts 27°
2026-05-07 03:46 38.60046 -76.58513 47673 ft 557 kts 27°
2026-05-07 03:46 38.63063 -76.55335 47007 ft 564 kts 28°
2026-05-07 03:46 38.66066 -76.52133 46265 ft 559 kts 28°
2026-05-07 03:47 38.69023 -76.48969 45495 ft 550 kts 28°
2026-05-07 03:47 38.72000 -76.46013 44721 ft 530 kts 21°
2026-05-07 03:47 38.75105 -76.43655 43840 ft 508 kts 13°
2026-05-07 03:47 38.78261 -76.41857 42974 ft 488 kts
2026-05-07 03:48 38.81396 -76.40285 42202 ft 481 kts
2026-05-07 03:48 38.84492 -76.38702 41414 ft 476 kts
2026-05-07 03:48 38.87509 -76.37132 40665 ft 471 kts
2026-05-07 03:48 38.90527 -76.35573 39925 ft 464 kts
2026-05-07 03:49 38.93510 -76.34051 39211 ft 459 kts
2026-05-07 03:49 38.96459 -76.32540 38514 ft 454 kts
2026-05-07 03:49 38.99374 -76.31033 37694 ft 449 kts
2026-05-07 03:49 39.02252 -76.29543 36991 ft 443 kts
2026-05-07 03:50 39.05097 -76.28077 36228 ft 438 kts
2026-05-07 03:50 39.07912 -76.26628 35486 ft 435 kts
2026-05-07 03:50 39.10726 -76.25181 34764 ft 436 kts
2026-05-07 03:50 39.13532 -76.23588 34040 ft 450 kts 12°
2026-05-07 03:51 39.16241 -76.21415 33241 ft 468 kts 22°
2026-05-07 03:51 39.18800 -76.18666 32298 ft 490 kts 31°
2026-05-07 03:51 39.21371 -76.15628 31371 ft 515 kts 32°
2026-05-07 03:51 39.24061 -76.12465 30426 ft 525 kts 33°
2026-05-07 03:52 39.26769 -76.09297 29430 ft 525 kts 33°
2026-05-07 03:52 39.29637 -76.06452 28352 ft 518 kts 26°
2026-05-07 03:52 39.32564 -76.03755 27331 ft 516 kts 26°
2026-05-07 03:52 39.35443 -76.01096 26363 ft 515 kts 26°
2026-05-07 03:53 39.38318 -75.98364 25409 ft 511 kts 27°
2026-05-07 03:53 39.41156 -75.95653 24533 ft 503 kts 27°
2026-05-07 03:53 39.43970 -75.93012 23621 ft 496 kts 27°
2026-05-07 03:53 39.46753 -75.90418 22585 ft 489 kts 27°
2026-05-07 03:54 39.49485 -75.87839 21553 ft 483 kts 28°
2026-05-07 03:54 39.52168 -75.85284 20557 ft 475 kts 29°
2026-05-07 03:54 39.54815 -75.82778 19593 ft 467 kts 29°
2026-05-07 03:54 39.57422 -75.80322 18662 ft 460 kts 29°
2026-05-07 03:55 39.59987 -75.77907 17688 ft 452 kts 30°
2026-05-07 03:55 39.62538 -75.75578 16667 ft 444 kts 29°
2026-05-07 03:55 39.65038 -75.73325 16064 ft 429 kts 29°
2026-05-07 03:55 39.67452 -75.71107 15569 ft 423 kts 30°
2026-05-07 03:56 39.69841 -75.68894 15084 ft 421 kts 30°
2026-05-07 03:56 39.72221 -75.66703 14605 ft 418 kts 30°
2026-05-07 03:56 39.74589 -75.64533 14135 ft 416 kts 31°
2026-05-07 03:56 39.76958 -75.62360 13667 ft 418 kts 31°
2026-05-07 03:57 39.79330 -75.60174 13147 ft 418 kts 31°
2026-05-07 03:57 39.81674 -75.58004 13035 ft 410 kts 31°
2026-05-07 03:57 39.84004 -75.55853 13053 ft 411 kts 31°
2026-05-07 03:57 39.86354 -75.53689 13055 ft 414 kts 31°
2026-05-07 03:58 39.88682 -75.51538 13054 ft 417 kts 31°
2026-05-07 03:58 39.91053 -75.49339 13058 ft 420 kts 32°
2026-05-07 03:58 39.93443 -75.47124 13054 ft 423 kts 31°
2026-05-07 03:58 39.95844 -75.44899 13055 ft 425 kts 31°
2026-05-07 03:59 39.98257 -75.42661 13066 ft 426 kts 32°
2026-05-07 03:59 40.00665 -75.40422 13049 ft 422 kts 32°
2026-05-07 03:59 40.03036 -75.38213 13043 ft 415 kts 32°
2026-05-07 03:59 40.05369 -75.36043 13033 ft 409 kts 32°
2026-05-07 04:00 40.07675 -75.33900 13032 ft 405 kts 31°
2026-05-07 04:00 40.09974 -75.31760 13045 ft 409 kts 31°
2026-05-07 04:00 40.12309 -75.29584 13044 ft 416 kts 32°
2026-05-07 04:00 40.14678 -75.27372 13053 ft 421 kts 32°
2026-05-07 04:01 40.17074 -75.25133 12902 ft 425 kts 32°
2026-05-07 04:01 40.19437 -75.22926 12366 ft 411 kts 32°
2026-05-07 04:01 40.21737 -75.20778 11823 ft 401 kts 31°
2026-05-07 04:01 40.23980 -75.18687 11269 ft 391 kts 31°
2026-05-07 04:02 40.26172 -75.16639 10757 ft 384 kts 31°
2026-05-07 04:02 40.28320 -75.14625 10251 ft 373 kts 31°
2026-05-07 04:02 40.30392 -75.12680 9763 ft 360 kts 31°
2026-05-07 04:02 40.32365 -75.10739 9242 ft 350 kts 37°
2026-05-07 04:03 40.34040 -75.08472 8802 ft 342 kts 44°
2026-05-07 04:03 40.35621 -75.06182 8359 ft 335 kts 45°
2026-05-07 04:03 40.37185 -75.03962 7955 ft 329 kts 43°
2026-05-07 04:03 40.38745 -75.01797 7486 ft 325 kts 43°
2026-05-07 04:04 40.40287 -74.99641 7053 ft 321 kts 43°
2026-05-07 04:04 40.41744 -74.97573 7007 ft 303 kts 43°
2026-05-07 04:04 40.43137 -74.95602 7002 ft 286 kts 42°
2026-05-07 04:04 40.44480 -74.93717 7006 ft 272 kts 42°
2026-05-07 04:05 40.45738 -74.91951 7006 ft 267 kts 42°
2026-05-07 04:05 40.47007 -74.90166 7007 ft 268 kts 42°
2026-05-07 04:05 40.48281 -74.88368 6937 ft 271 kts 42°
2026-05-07 04:05 40.49614 -74.86492 6764 ft 291 kts 42°
2026-05-07 04:06 40.51043 -74.84479 6537 ft 311 kts 43°
2026-05-07 04:06 40.52553 -74.82338 6267 ft 328 kts 43°
2026-05-07 04:06 40.54133 -74.80096 5950 ft 334 kts 43°
2026-05-07 04:06 40.55690 -74.77882 5647 ft 325 kts 43°
2026-05-07 04:07 40.57209 -74.75728 5363 ft 317 kts 43°
2026-05-07 04:07 40.58503 -74.73422 5003 ft 314 kts 63°
2026-05-07 04:07 40.59234 -74.70772 4780 ft 303 kts 70°
2026-05-07 04:07 40.59920 -74.68187 4536 ft 296 kts 69°
2026-05-07 04:08 40.60616 -74.65666 4274 ft 290 kts 68°
2026-05-07 04:08 40.61294 -74.63192 4024 ft 285 kts 69°
2026-05-07 04:08 40.61953 -74.60745 3764 ft 282 kts 68°
2026-05-07 04:08 40.62603 -74.58335 3523 ft 277 kts 68°
2026-05-07 04:09 40.63247 -74.55959 3275 ft 274 kts 69°
2026-05-07 04:09 40.63881 -74.53613 3035 ft 270 kts 69°
2026-05-07 04:09 40.64492 -74.51346 3015 ft 256 kts 68°
2026-05-07 04:09 40.65072 -74.49192 3019 ft 244 kts 68°
2026-05-07 04:10 40.65630 -74.47123 3014 ft 238 kts 68°
2026-05-07 04:10 40.66184 -74.45073 3016 ft 237 kts 68°
2026-05-07 04:10 40.66733 -74.43030 3017 ft 236 kts 68°
2026-05-07 04:10 40.67280 -74.40993 3016 ft 236 kts 68°
2026-05-07 04:11 40.67824 -74.38969 3031 ft 234 kts 68°
2026-05-07 04:11 40.68377 -74.36913 2957 ft 243 kts 68°
2026-05-07 04:11 40.68950 -74.34777 2793 ft 251 kts 69°
2026-05-07 04:11 40.69542 -74.32566 2595 ft 261 kts 69°
2026-05-07 04:12 40.70155 -74.30273 2375 ft 270 kts 68°
2026-05-07 04:12 40.70792 -74.27921 2117 ft 272 kts 66°
2026-05-07 04:12 40.71785 -74.25904 2004 ft 253 kts 43°
2026-05-07 04:12 40.72931 -74.24269 2027 ft 239 kts 44°
2026-05-07 04:13 40.74005 -74.22675 2018 ft 229 kts 44°
2026-05-07 04:13 40.75050 -74.21134 2017 ft 222 kts 43°
2026-05-07 04:13 40.76074 -74.19639 2019 ft 217 kts 43°
2026-05-07 04:13 40.77077 -74.18175 2017 ft 213 kts 43°
2026-05-07 04:14 40.78031 -74.16685 1873 ft 213 kts 51°
2026-05-07 04:14 40.78671 -74.14905 1730 ft 213 kts 63°
2026-05-07 04:14 40.79194 -74.13114 1715 ft 206 kts 63°
2026-05-07 04:14 40.79723 -74.11426 1705 ft 190 kts 60°
2026-05-07 04:15 40.80260 -74.09918 1700 ft 176 kts 55°
2026-05-07 04:15 40.80814 -74.08508 1706 ft 171 kts 57°
2026-05-07 04:15 40.81354 -74.07160 1693 ft 154 kts 49°
2026-05-07 04:15 40.82038 -74.06283 1392 ft 128 kts 26°
2026-05-07 04:16 40.82929 -74.06055 458 ft 140 kts 358°
2026-05-07 04:16 40.83841 -74.06046 117 ft 127 kts
2026-05-07 04:16 40.84644 -74.05982 20 ft 103 kts
2026-05-07 04:16 40.85212 -74.05938 10 ft 54 kts
2026-05-07 04:17 40.85443 -74.05922 11 ft 24 kts
2026-05-07 04:17 40.85593 -74.05912 14 ft 20 kts
2026-05-07 04:17 40.85730 -74.05900 13 ft 17 kts
2026-05-07 04:17 40.85779 -74.05855 14 ft 8 kts 85°
2026-05-07 04:18 40.85783 -74.05770 16 ft 9 kts 84°
2026-05-07 04:18 40.85766 -74.05709 16 ft 8 kts 171°
2026-05-07 04:18 40.85696 -74.05713 16 ft 10 kts 183°
2026-05-07 04:18 40.85618 -74.05718 15 ft 12 kts 183°
2026-05-07 04:19 40.85553 -74.05678 14 ft 11 kts 97°
2026-05-07 04:19 40.85532 -74.05596 15 ft 9 kts 145°
2026-05-07 04:19 40.85478 -74.05630 13 ft 11 kts 227°
2026-05-07 04:19 40.85435 -74.05614 12 ft 9 kts 96°
2026-05-07 04:20 40.85436 -74.05532 12 ft 9 kts 88°
2026-05-07 04:20 40.85450 -74.05490 13 ft 0 kts 26°